Flag for Switzerland Weather past 2 weeks in Riehen, Basel-Stadt, Switzerland

Now
57 °F

Light rain. Overcast.


Feels Like: 57 °F
Forecast: 47 / 62 °F
Wind: 6 mph from Northwest

Location: Bale-Mulhouse

Current Time: Sep 22, 2014 at 12:52:23 AM

Latest Report: Sep 22, 2014 at 12:00 AM


Visibility: 4 mi

Pressure: 30.11 "Hg

Humidity: 95%

Dew point: 56 °F

Location of RiehenLocation

Historic Weather in Riehen — Graph

°F

Riehen temperature yesterday

Maximum temperature yesterday: 69 °F (at 11:00 AM)
Minimum temperature yesterday: 58 °F (at 10:00 PM)
Average temperature yesterday: 63 °F

Past Weeks' High & Low Weather Summary

 TemperatureHumidityPressure
High81 °F (Sep 8, 4:00 PM)99% (Sep 15, 4:00 AM)30.14 "Hg (Sep 15, 4:00 AM)
Low49 °F (Sep 11, 6:00 AM)48% (Sep 7, 6:00 PM)29.80 "Hg (Sep 17, 4:00 PM)
Average63 °F84%29.99 "Hg
* Reported Sep 6 11:00 PM — Sep 21 11:00 PM, Riehen, Weather by CustomWeather, © 2014

Note: Actual official high and low records may vary slightly from our data, if they occured in-between our weather recording intervals... More about our weather records

Advertising

Riehen weather history for previous 24 hours

 ConditionsComfort  
Time TempWeatherWind HumidityBarometerVisibility
11:00 PM
Sep 21
58 °FLow clouds.6 mph95%30.10 "Hg11 mi
10:00 PM58 °FLight rain. Low clouds.7 mph96%30.09 "Hg5 mi
9:00 PM61 °FOvercast.7 mph92%30.05 "Hg7 mi
8:00 PM61 °FLight rain. Overcast.7 mph92%30.03 "Hg7 mi
7:00 PM62 °FLight rain. Overcast.8 mph91%30.02 "Hg9 mi
6:00 PM63 °FSprinkles. Overcast.6 mph88%30.00 "Hg7 mi
5:00 PM62 °FOvercast.7 mph88%30.00 "Hg9 mi
4:00 PM63 °FLight rain. Overcast.9 mph86%30.00 "Hg7 mi
3:00 PM68 °FOvercast.12 mph80%29.98 "Hg6 mi
2:00 PM68 °FOvercast.12 mph71%29.99 "Hg12 mi
1:00 PM68 °FOvercast.9 mph73%30.00 "Hg12 mi
12:00 PM66 °FRain showers. Overcast.8 mph78%30.02 "Hg2 mi
11:00 AM69 °FScattered clouds.2 mph74%30.01 "Hg19 mi
10:00 AM65 °FScattered clouds.3 mph85%30.03 "Hg19 mi
9:00 AM62 °FSprinkles. Overcast.6 mph94%30.02 "Hg7 mi
8:00 AM62 °FSprinkles. Overcast.2 mph90%30.03 "Hg7 mi
7:00 AM62 °FOvercast.2 mph88%30.03 "Hg19 mi
6:00 AM62 °FPassing clouds.3 mph92%30.02 "Hg19 mi
5:00 AM62 °FOvercast.2 mph95%30.01 "Hg9 mi
4:00 AM62 °FOvercast.6 mph95%30.02 "Hg11 mi
3:00 AM62 °FLow clouds.2 mph95%30.01 "Hg13 mi
2:00 AM62 °FOvercast.1 mph96%30.02 "Hg15 mi
1:00 AM61 °FOvercast.No wind95%30.03 "Hg14 mi
12:00 AM61 °FOvercast.No wind95%30.03 "Hg31 mi
Weather by CustomWeather, © 2014

See weather overviewHow to use our weather pages